ONEWEB-0393

operational
NORAD ID: 50473 Int'l Des: 2021-132 Owner: ONEWEBN Country: UK Constellation: oneweb
LEOCIRCULARPOLARONEWEB_TYPE

Über ONEWEB-0393

Beschreibung wird geladen...

Live-Position

3D-Globus wird geladen...

Nächste Überflüge

Höhenverlauf

Altitude vs Time

uPlot chart will show altitude changes over time

Zweizeiliger Elementsatz

1 50473U 21132E 25250.95083087 -.00000009 00000-0 -55407-4 0 9998
2 50473 87.9045 61.9986 0001903 92.3593 267.7756 13.17646982180946
Epoch: 7. Sept. 2025 • Age: 6 hours

Aktueller Status

Höhe 1195.6 km
Geschwindigkeit 7.26 km/s
Subsatellitenpunkt 10.65°N, 176.88°E
Startdatum 27. Dez. 2021
Alter 3.6 years
Typ internet

Technische Details

Klassifizierung Payload
Masse 148.00 kg
Trockenmasse 140.00 kg
Gesamtmasse 148.00 kg
Länge 1.30 m
Durchmesser 1.00 m
Spannweite 5.00 m
Form Trapezoid+2 pan
Hersteller ONEWUS
Bus-Typ ARROW
Phasenstatus In Orbit
Besitzer/Staat ONEWEBN/UK

Große Konstellationen

Loading constellations...